2022-095D (53387 NORAD) Tracking and Keplerian Element Data

This shows tracking and keplerian element data for the satellite.

Feedback or suggestion? Click here.




ElementValue
Catalog53387
Name2022-095D
Epoch Orbit410
Epoch Day248.06397288
Epoch Year2022
RAAN321.736
Inclination97.4042
Eccentricity0.0083295
Argument of Perigee338.9708
Mean Anonmoly137.5533
Mean Motion15.25742335
Decay Rate4.5E-05
L11 53387U 22095D 22248.06397288 .00004500 00000+0 16250-3 0 9990
L22 53387 97.4042 321.7360 0083295 338.9708 137.5533 15.25742335 4100

Live tracking and technical data element details for 2022-095D (NORAD 53387). 2022-095D can be tracked NOW for your location showing map with azimuth and elevation plus other details from your city location.

Track the satellite on the map from your city or location and see movement details for azimuth, elevation, latitude, longitude, range, height, and movement on the map or in text.







IsCatalogInMostPopularTable: catalog: 53387, numindb: 3
Update: records affected: 1



GetName: 53387 2022-095D

Hit Count: updated at: Wed, 28 Sep 2022 21:43:16 GMT